IRNSS-1I

Last updated on Jan. 18, 2020, 4:38 a.m. UTC

1 43286U 18035A   20016.83382733  .00000085  00000-0  00000+0 0  9998
2 43286  28.8611 112.0118 0021401 185.0952 173.9265  1.00276873  6578
UTC
Height (km)
Latitude
Longitude
Inclination
Orbital Period
UTC large
Height (km)
Speed (km/s)
/
Latitude / Longitude
Inclination (degrees)
Orbital Period (minutes)
Azimuth
Elevation
Range (km)
Doppler Factor
iOS Compass Heading
iOS Angle

Next 30 passes for location: Hong Kong

Rise time Rise Azimuth (degrees) Set time Set Azimuth (degrees) Duration Max altitude (degrees)

No matching passes for this satellites